Terminal Aerodrome Forecast
Issued by NWS

Home | Current Version | Previous Version | Text Only | Print | Product List | Glossary On
Versions: 1 2 3 4 5 6 7 8 9 10 11 12 13
000
FTUS45 KRIW 220500
TAFBPI
TAF
KBPI 220526Z 2206/2306 VRB05KT P6SM VCSH SCT022 BKN050
      TEMPO 2208/2212 BKN022
     FM221800 30010KT P6SM VCSH SCT040 BKN050 PROB30 2221/2224 -TSRA
      BKN040CB
     FM230200 34005KT P6SM BKN070=

USA.gov is the U.S. government's official web portal to all federal, state and local government web resources and services.